START_TIME,STEP,MOV.,P1,t_acc.,E44,t_acc.,A3,t_acc.,P10,t_acc.
1986-01-26 12:00:24.530 ,0,0,0.,1.2,0.,1.2,0.,1.2,0.,1.2
1986-01-26 12:00:25.730 ,0,0,0.,1.2,0.,1.2,0.,1.2,0.,1.2
1986-01-26 12:00:26.930 ,0,0,0.,1.2,0.,1.2,0.,1.2,0.,1.2
1986-01-26 12:00:28.130 ,0,0,0.,1.2,0.,1.2,0.,1.2,0.,1.2
1986-01-26 12:00:29.330 ,0,0,0.,1.2,0.,1.2,0.,1.2,0.,1.2
1986-01-26 12:00:30.530 ,0,0,0.,1.2,0.,1.2,0.,1.2,0.,1.2
1986-01-26 12:00:31.730 ,0,0,0.,1.2,0.,1.2,0.,1.2,0.,1.2
1986-01-26 12:00:32.930 ,0,0,0.,1.2,0.,1.2,0.,1.2,0.,1.2
1986-01-26 12:00:34.130 ,0,0,0.,1.2,0.,1.2,0.,1.2,0.,1.2
1986-01-26 12:00:35.330 ,0,0,0.,1.2,0.,1.2,0.,1.2,0.,1.2
1986-01-26 12:00:36.530 ,0,0,0.,1.2,0.,1.2,0.,1.2,0.,1.2
1986-01-26 12:00:37.730 ,0,0,0.,1.2,0.,1.2,0.,1.2,0.,1.2
1986-01-26 12:00:38.930 ,0,0,0.,1.2,0.,1.2,0.,1.2,0.,1.2
1986-01-26 12:00:40.130 ,0,0,0.,1.2,0.,1.2,0.,1.2,0.,1.2
1986-01-26 12:00:41.330 ,0,0,0.,1.2,0.,1.2,0.,1.2,0.,1.2
1986-01-26 12:00:42.530 ,0,0,0.,1.2,0.,1.2,0.,1.2,0.,1.2
1986-01-26 12:00:43.730 ,0,0,0.,1.2,0.,1.2,0.,1.2,0.,1.2
1986-01-26 12:00:44.930 ,0,0,0.,1.2,0.,1.2,0.,1.2,0.,1.2
1986-01-26 12:00:46.130 ,0,0,0.,1.2,0.,1.2,0.,1.2,0.,1.2
1986-01-26 12:00:47.330 ,0,0,0.,1.2,0.,1.2,0.,1.2,0.,1.2
1986-01-26 12:00:48.530 ,0,0,0.,1.2,0.,1.2,0.,1.2,0.,1.2
1986-01-26 12:00:49.730 ,0,0,0.,1.2,0.,1.2,0.,1.2,0.,1.2
1986-01-26 12:00:50.930 ,0,0,0.,1.2,0.,1.2,0.,1.2,0.,1.2
1986-01-26 12:00:52.130 ,0,0,0.,1.2,0.,1.2,0.,1.2,0.,1.2
1986-01-26 12:00:53.330 ,0,0,0.,1.2,0.,1.2,0.,1.2,0.,1.2
1986-01-26 12:00:54.530 ,0,0,0.,1.2,0.,1.2,0.,1.2,0.,1.2
1986-01-26 12:00:55.730 ,0,0,0.,1.2,0.,1.2,0.,1.2,0.,1.2
1986-01-26 12:00:56.930 ,0,0,0.,1.2,0.,1.2,0.,1.2,0.,1.2
1986-01-26 12:00:58.130 ,0,0,0.,1.2,0.,1.2,0.,1.2,0.,1.2
1986-01-26 12:00:59.330 ,0,0,0.,1.2,0.,1.2,0.,1.2,0.,1.2
1986-01-26 12:01:00.530 ,0,0,0.,1.2,0.,1.2,0.,1.2,0.,1.2
1986-01-26 12:01:01.730 ,0,0,0.,1.2,0.,1.2,0.,1.2,0.,1.2
1986-01-26 12:01:02.930 ,0,0,0.,1.2,0.,1.2,0.,1.2,0.,1.2
1986-01-26 12:01:04.130 ,0,0,0.,1.2,0.,1.2,0.,1.2,0.,1.2
1986-01-26 12:01:05.330 ,0,0,0.,1.2,0.,1.2,0.,1.2,0.,1.2
1986-01-26 12:01:06.530 ,0,0,0.,1.2,0.,1.2,0.,1.2,0.,1.2
1986-01-26 12:01:07.730 ,0,0,0.,1.2,0.,1.2,0.,1.2,0.,1.2
1986-01-26 12:01:08.930 ,0,0,0.,1.2,0.,1.2,0.,1.2,0.,1.2
1986-01-26 12:01:10.130 ,0,0,0.,1.2,0.,1.2,0.,1.2,0.,1.2
1986-01-26 12:01:11.330 ,0,0,0.,1.2,0.,1.2,0.,1.2,0.,1.2
1986-01-26 12:01:12.530 ,0,0,0.,1.2,0.,1.2,0.,1.2,0.,1.2
1986-01-26 12:01:13.730 ,0,0,0.,1.2,0.,1.2,0.,1.2,0.,1.2
1986-01-26 12:01:14.930 ,0,0,0.,1.2,0.,1.2,0.,1.2,0.,1.2
1986-01-26 12:01:16.130 ,0,0,0.,1.2,0.,1.2,0.,1.2,0.,1.2
1986-01-26 12:01:17.330 ,0,0,0.,1.2,0.,1.2,0.,1.2,0.,1.2
1986-01-26 12:01:18.530 ,0,0,0.,1.2,0.,1.2,0.,1.2,0.,1.2
1986-01-26 12:01:19.730 ,0,0,0.,1.2,0.,1.2,0.,1.2,0.,1.2
1986-01-26 12:01:20.930 ,0,0,0.,1.2,0.,1.2,0.,1.2,0.,1.2
1986-01-26 12:01:22.130 ,0,0,0.,1.2,0.,1.2,0.,1.2,0.,1.2
1986-01-26 12:01:23.330 ,0,0,0.,1.2,0.,1.2,0.,1.2,0.,1.2
1986-01-26 12:01:24.530 ,0,0,0.,1.2,0.,1.2,0.,1.2,0.,1.2
1986-01-26 12:01:25.730 ,0,0,0.,1.2,0.,1.2,0.,1.2,0.,1.2
1986-01-26 12:01:26.930 ,0,0,0.,1.2,0.,1.2,0.,1.2,0.,1.2
1986-01-26 12:01:28.130 ,0,0,0.,1.2,0.,1.2,0.,1.2,0.,1.2
1986-01-26 12:01:29.330 ,0,0,0.,1.2,0.,1.2,0.,1.2,0.,1.2
1986-01-26 12:01:30.530 ,0,0,0.,1.2,0.,1.2,0.,1.2,0.,1.2
1986-01-26 12:01:31.730 ,0,0,0.,1.2,0.,1.2,0.,1.2,0.,1.2
1986-01-26 12:01:32.930 ,0,0,0.,1.2,0.,1.2,0.,1.2,0.,1.2
1986-01-26 12:01:34.130 ,0,0,0.,1.2,0.,1.2,0.,1.2,0.,1.2
1986-01-26 12:01:35.330 ,0,0,0.,1.2,0.,1.2,0.,1.2,0.,1.2
1986-01-26 12:01:36.530 ,1,0,0.,1.2,0.,1.2,0.,1.2,1.,1.2
1986-01-26 12:01:37.730 ,1,0,0.,1.2,0.,1.2,0.,1.2,0.,1.2
1986-01-26 12:01:38.930 ,1,0,0.,1.2,0.,1.2,0.,1.2,0.,1.2
1986-01-26 12:01:40.130 ,1,0,0.,1.2,0.,1.2,0.,1.2,0.,1.2
1986-01-26 12:01:41.330 ,1,0,0.,1.2,0.,1.2,0.,1.2,0.,1.2
1986-01-26 12:01:42.530 ,1,0,0.,1.2,0.,1.2,0.,1.2,0.,1.2
1986-01-26 12:01:43.730 ,1,0,0.,1.2,0.,1.2,0.,1.2,0.,1.2
1986-01-26 12:01:44.930 ,1,0,0.,1.2,0.,1.2,0.,1.2,0.,1.2
1986-01-26 12:01:46.130 ,1,0,0.,1.2,0.,1.2,0.,1.2,0.,1.2
1986-01-26 12:01:47.330 ,1,0,0.,1.2,0.,1.2,0.,1.2,0.,1.2
1986-01-26 12:01:48.530 ,1,0,0.,1.2,0.,1.2,0.,1.2,0.,1.2
1986-01-26 12:01:49.730 ,1,0,0.,1.2,0.,1.2,0.,1.2,0.,1.2
1986-01-26 12:01:50.930 ,1,0,0.,1.2,0.,1.2,0.,1.2,0.,1.2
1986-01-26 12:01:52.130 ,1,0,0.,1.2,0.,1.2,0.,1.2,0.,1.2
1986-01-26 12:01:53.330 ,1,0,0.,1.2,0.,1.2,0.,1.2,0.,1.2
1986-01-26 12:01:54.530 ,1,0,0.,1.2,0.,1.2,0.,1.2,0.,1.2
1986-01-26 12:01:55.730 ,1,0,0.,1.2,0.,1.2,0.,1.2,1.,1.2
1986-01-26 12:01:56.930 ,1,0,0.,1.2,0.,1.2,0.,1.2,0.,1.2
1986-01-26 12:01:58.130 ,1,0,0.,1.2,0.,1.2,0.,1.2,0.,1.2
1986-01-26 12:01:59.330 ,1,0,1.,1.2,0.,1.2,0.,1.2,0.,1.2
1986-01-26 12:02:00.530 ,1,0,0.,1.2,0.,1.2,0.,1.2,0.,1.2
1986-01-26 12:02:01.730 ,1,0,0.,1.2,0.,1.2,0.,1.2,0.,1.2
1986-01-26 12:02:02.930 ,1,0,0.,1.2,0.,1.2,0.,1.2,0.,1.2
1986-01-26 12:02:04.130 ,1,0,0.,1.2,0.,1.2,0.,1.2,0.,1.2
1986-01-26 12:02:05.330 ,1,0,0.,1.2,0.,1.2,0.,1.2,0.,1.2
1986-01-26 12:02:06.530 ,1,0,0.,1.2,0.,1.2,0.,1.2,0.,1.2
1986-01-26 12:02:07.730 ,1,0,0.,1.2,0.,1.2,0.,1.2,0.,1.2
1986-01-26 12:02:08.930 ,1,0,0.,1.2,0.,1.2,0.,1.2,0.,1.2
1986-01-26 12:02:10.130 ,1,0,0.,1.2,0.,1.2,0.,1.2,0.,1.2
1986-01-26 12:02:11.330 ,1,0,0.,1.2,0.,1.2,0.,1.2,0.,1.2
1986-01-26 12:02:12.530 ,1,0,0.,1.2,0.,1.2,0.,1.2,0.,1.2
1986-01-26 12:02:13.730 ,1,0,0.,1.2,0.,1.2,0.,1.2,0.,1.2
1986-01-26 12:02:14.930 ,1,0,0.,1.2,0.,1.2,0.,1.2,0.,1.2
1986-01-26 12:02:16.130 ,1,0,0.,1.2,0.,1.2,0.,1.2,0.,1.2
1986-01-26 12:02:17.330 ,1,0,0.,1.2,0.,1.2,0.,1.2,0.,1.2
1986-01-26 12:02:18.530 ,1,0,0.,1.2,0.,1.2,0.,1.2,0.,1.2
1986-01-26 12:02:19.730 ,1,0,0.,1.2,0.,1.2,0.,1.2,0.,1.2
1986-01-26 12:02:20.930 ,1,0,0.,1.2,0.,1.2,0.,1.2,0.,1.2
1986-01-26 12:02:22.130 ,1,0,0.,1.2,0.,1.2,0.,1.2,0.,1.2
1986-01-26 12:02:23.330 ,1,0,0.,1.2,0.,1.2,0.,1.2,0.,1.2
1986-01-26 12:02:24.530 ,2,0,0.,1.2,0.,1.2,0.,1.2,0.,1.2
1986-01-26 12:02:25.730 ,2,0,0.,1.2,0.,1.2,0.,1.2,0.,1.2
1986-01-26 12:02:26.930 ,2,0,0.,1.2,0.,1.2,0.,1.2,0.,1.2
1986-01-26 12:02:28.130 ,2,0,0.,1.2,0.,1.2,0.,1.2,0.,1.2
1986-01-26 12:02:29.330 ,2,0,0.,1.2,0.,1.2,0.,1.2,0.,1.2
1986-01-26 12:02:30.530 ,2,0,0.,1.2,0.,1.2,0.,1.2,0.,1.2
1986-01-26 12:02:31.730 ,2,0,0.,1.2,0.,1.2,0.,1.2,0.,1.2
1986-01-26 12:02:32.930 ,2,0,0.,1.2,0.,1.2,0.,1.2,0.,1.2
1986-01-26 12:02:34.130 ,2,0,0.,1.2,0.,1.2,0.,1.2,0.,1.2
1986-01-26 12:02:35.330 ,2,0,0.,1.2,0.,1.2,0.,1.2,0.,1.2
1986-01-26 12:02:36.530 ,2,0,1.,1.2,0.,1.2,0.,1.2,0.,1.2
1986-01-26 12:02:37.730 ,2,0,0.,1.2,0.,1.2,0.,1.2,0.,1.2
1986-01-26 12:02:38.930 ,2,0,0.,1.2,0.,1.2,0.,1.2,0.,1.2
1986-01-26 12:02:40.130 ,2,0,0.,1.2,0.,1.2,0.,1.2,0.,1.2
1986-01-26 12:02:41.330 ,2,0,0.,1.2,0.,1.2,0.,1.2,0.,1.2
1986-01-26 12:02:42.530 ,2,0,0.,1.2,0.,1.2,0.,1.2,0.,1.2
1986-01-26 12:02:43.730 ,2,0,0.,1.2,0.,1.2,0.,1.2,0.,1.2
1986-01-26 12:02:44.930 ,2,0,0.,1.2,0.,1.2,0.,1.2,0.,1.2
1986-01-26 12:02:46.130 ,2,0,0.,1.2,0.,1.2,0.,1.2,0.,1.2
1986-01-26 12:02:47.330 ,2,0,0.,1.2,0.,1.2,0.,1.2,0.,1.2
1986-01-26 12:02:48.530 ,2,0,0.,1.2,0.,1.2,0.,1.2,0.,1.2
1986-01-26 12:02:49.730 ,2,0,0.,1.2,0.,1.2,0.,1.2,0.,1.2
1986-01-26 12:02:50.930 ,2,0,0.,1.2,0.,1.2,0.,1.2,0.,1.2
1986-01-26 12:02:52.130 ,2,0,0.,1.2,0.,1.2,0.,1.2,0.,1.2
1986-01-26 12:02:53.330 ,2,0,0.,1.2,0.,1.2,0.,1.2,0.,1.2
1986-01-26 12:02:54.530 ,2,0,0.,1.2,0.,1.2,0.,1.2,0.,1.2
1986-01-26 12:02:55.730 ,2,0,0.,1.2,0.,1.2,0.,1.2,1.,1.2
1986-01-26 12:02:56.930 ,2,0,0.,1.2,0.,1.2,0.,1.2,0.,1.2
1986-01-26 12:02:58.130 ,2,0,0.,1.2,0.,1.2,0.,1.2,0.,1.2
1986-01-26 12:02:59.330 ,2,0,0.,1.2,0.,1.2,0.,1.2,0.,1.2
1986-01-26 12:03:00.530 ,2,0,0.,1.2,0.,1.2,0.,1.2,0.,1.2
1986-01-26 12:03:01.730 ,2,0,0.,1.2,0.,1.2,0.,1.2,0.,1.2
1986-01-26 12:03:02.930 ,2,0,0.,1.2,0.,1.2,0.,1.2,0.,1.2
1986-01-26 12:03:04.130 ,2,0,0.,1.2,0.,1.2,0.,1.2,1.,1.2
1986-01-26 12:03:05.330 ,2,0,0.,1.2,0.,1.2,0.,1.2,0.,1.2
1986-01-26 12:03:06.530 ,2,0,0.,1.2,0.,1.2,0.,1.2,0.,1.2
1986-01-26 12:03:07.730 ,2,0,0.,1.2,0.,1.2,0.,1.2,1.,1.2
1986-01-26 12:03:08.930 ,2,0,0.,1.2,0.,1.2,0.,1.2,0.,1.2
1986-01-26 12:03:10.130 ,2,0,0.,1.2,0.,1.2,0.,1.2,0.,1.2
1986-01-26 12:03:11.330 ,2,0,0.,1.2,0.,1.2,0.,1.2,0.,1.2
1986-01-26 12:03:12.530 ,3,0,0.,1.2,0.,1.2,0.,1.2,0.,1.2
1986-01-26 12:03:13.730 ,3,0,0.,1.2,0.,1.2,0.,1.2,0.,1.2
1986-01-26 12:03:14.930 ,3,0,0.,1.2,0.,1.2,0.,1.2,0.,1.2
1986-01-26 12:03:16.130 ,3,0,0.,1.2,0.,1.2,0.,1.2,0.,1.2
1986-01-26 12:03:17.330 ,3,0,0.,1.2,0.,1.2,0.,1.2,0.,1.2
1986-01-26 12:03:18.530 ,3,0,0.,1.2,0.,1.2,0.,1.2,0.,1.2
1986-01-26 12:03:19.730 ,3,0,0.,1.2,0.,1.2,0.,1.2,0.,1.2
1986-01-26 12:03:20.930 ,3,0,0.,1.2,0.,1.2,0.,1.2,0.,1.2
1986-01-26 12:03:22.130 ,3,0,0.,1.2,0.,1.2,0.,1.2,0.,1.2
1986-01-26 12:03:23.330 ,3,0,0.,1.2,0.,1.2,0.,1.2,0.,1.2
1986-01-26 12:03:24.530 ,3,0,0.,1.2,0.,1.2,0.,1.2,0.,1.2
1986-01-26 12:03:25.730 ,3,0,0.,1.2,0.,1.2,0.,1.2,0.,1.2
1986-01-26 12:03:26.930 ,3,0,0.,1.2,0.,1.2,0.,1.2,0.,1.2
1986-01-26 12:03:28.130 ,3,0,0.,1.2,0.,1.2,0.,1.2,0.,1.2
1986-01-26 12:03:29.330 ,3,0,0.,1.2,0.,1.2,0.,1.2,0.,1.2
1986-01-26 12:03:30.530 ,3,0,0.,1.2,0.,1.2,0.,1.2,0.,1.2
1986-01-26 12:03:31.730 ,3,0,0.,1.2,0.,1.2,0.,1.2,0.,1.2
1986-01-26 12:03:32.930 ,3,0,0.,1.2,0.,1.2,0.,1.2,0.,1.2
1986-01-26 12:03:34.130 ,3,0,0.,1.2,0.,1.2,0.,1.2,0.,1.2
1986-01-26 12:03:35.330 ,3,0,0.,1.2,0.,1.2,0.,1.2,0.,1.2
1986-01-26 12:03:36.530 ,3,0,0.,1.2,0.,1.2,0.,1.2,0.,1.2
1986-01-26 12:03:37.730 ,3,0,0.,1.2,0.,1.2,0.,1.2,0.,1.2
1986-01-26 12:03:38.930 ,3,0,0.,1.2,0.,1.2,0.,1.2,1.,1.2
1986-01-26 12:03:40.130 ,3,0,0.,1.2,0.,1.2,0.,1.2,0.,1.2
1986-01-26 12:03:41.330 ,3,0,0.,1.2,0.,1.2,0.,1.2,0.,1.2
1986-01-26 12:03:42.530 ,3,0,0.,1.2,0.,1.2,0.,1.2,0.,1.2
1986-01-26 12:03:43.730 ,3,0,0.,1.2,0.,1.2,0.,1.2,0.,1.2
1986-01-26 12:03:44.930 ,3,0,0.,1.2,0.,1.2,0.,1.2,0.,1.2
1986-01-26 12:03:46.130 ,3,0,0.,1.2,0.,1.2,0.,1.2,0.,1.2
1986-01-26 12:03:47.330 ,3,0,0.,1.2,0.,1.2,0.,1.2,0.,1.2
1986-01-26 12:03:48.530 ,3,0,0.,1.2,0.,1.2,0.,1.2,0.,1.2
1986-01-26 12:03:49.730 ,3,0,0.,1.2,0.,1.2,0.,1.2,0.,1.2
1986-01-26 12:03:50.930 ,3,0,0.,1.2,0.,1.2,0.,1.2,0.,1.2
1986-01-26 12:03:52.130 ,3,0,0.,1.2,0.,1.2,0.,1.2,0.,1.2
1986-01-26 12:03:53.330 ,3,0,0.,1.2,0.,1.2,0.,1.2,0.,1.2
1986-01-26 12:03:54.530 ,3,0,0.,1.2,0.,1.2,0.,1.2,0.,1.2
1986-01-26 12:03:55.730 ,3,0,0.,1.2,0.,1.2,0.,1.2,0.,1.2
1986-01-26 12:03:56.930 ,3,0,0.,1.2,0.,1.2,0.,1.2,1.,1.2
1986-01-26 12:03:58.130 ,3,0,0.,1.2,0.,1.2,0.,1.2,0.,1.2
1986-01-26 12:03:59.330 ,3,0,0.,1.2,0.,1.2,0.,1.2,0.,1.2
1986-01-26 12:04:00.530 ,4,0,0.,1.2,0.,1.2,0.,1.2,0.,1.2
1986-01-26 12:04:01.730 ,4,0,0.,1.2,0.,1.2,0.,1.2,0.,1.2
1986-01-26 12:04:02.930 ,4,0,0.,1.2,0.,1.2,0.,1.2,0.,1.2
1986-01-26 12:04:04.130 ,4,0,0.,1.2,0.,1.2,0.,1.2,0.,1.2
1986-01-26 12:04:05.330 ,4,0,0.,1.2,0.,1.2,0.,1.2,0.,1.2
1986-01-26 12:04:06.530 ,4,0,0.,1.2,0.,1.2,0.,1.2,0.,1.2
1986-01-26 12:04:07.730 ,4,0,0.,1.2,0.,1.2,0.,1.2,0.,1.2
1986-01-26 12:04:08.930 ,4,0,0.,1.2,0.,1.2,0.,1.2,0.,1.2
1986-01-26 12:04:10.130 ,4,0,0.,1.2,0.,1.2,0.,1.2,0.,1.2
1986-01-26 12:04:11.330 ,4,0,0.,1.2,0.,1.2,0.,1.2,0.,1.2
1986-01-26 12:04:12.530 ,4,0,0.,1.2,0.,1.2,0.,1.2,0.,1.2
1986-01-26 12:04:13.730 ,4,0,0.,1.2,0.,1.2,0.,1.2,1.,1.2
1986-01-26 12:04:14.930 ,4,0,0.,1.2,0.,1.2,0.,1.2,0.,1.2
1986-01-26 12:04:16.130 ,4,0,0.,1.2,0.,1.2,0.,1.2,0.,1.2
1986-01-26 12:04:17.330 ,4,0,0.,1.2,0.,1.2,0.,1.2,1.,1.2
1986-01-26 12:04:18.530 ,4,0,0.,1.2,0.,1.2,0.,1.2,0.,1.2
1986-01-26 12:04:19.730 ,4,0,0.,1.2,0.,1.2,0.,1.2,0.,1.2
1986-01-26 12:04:20.930 ,4,0,0.,1.2,0.,1.2,0.,1.2,0.,1.2
1986-01-26 12:04:22.130 ,4,0,0.,1.2,0.,1.2,0.,1.2,0.,1.2
1986-01-26 12:04:23.330 ,4,0,0.,1.2,0.,1.2,0.,1.2,0.,1.2
1986-01-26 12:04:24.530 ,4,0,0.,1.2,0.,1.2,0.,1.2,0.,1.2
1986-01-26 12:04:25.730 ,4,0,0.,1.2,0.,1.2,0.,1.2,1.,1.2
1986-01-26 12:04:26.930 ,4,0,0.,1.2,0.,1.2,0.,1.2,0.,1.2
1986-01-26 12:04:28.130 ,4,0,0.,1.2,0.,1.2,0.,1.2,0.,1.2
1986-01-26 12:04:29.330 ,4,0,0.,1.2,0.,1.2,0.,1.2,0.,1.2
1986-01-26 12:04:30.530 ,4,0,0.,1.2,0.,1.2,0.,1.2,1.,1.2
1986-01-26 12:04:31.730 ,4,0,1.,1.2,0.,1.2,0.,1.2,0.,1.2
1986-01-26 12:04:32.930 ,4,0,0.,1.2,0.,1.2,0.,1.2,0.,1.2
1986-01-26 12:04:34.130 ,4,0,0.,1.2,0.,1.2,0.,1.2,0.,1.2
1986-01-26 12:04:35.330 ,4,0,0.,1.2,0.,1.2,0.,1.2,0.,1.2
1986-01-26 12:04:36.530 ,4,0,0.,1.2,0.,1.2,0.,1.2,0.,1.2
1986-01-26 12:04:37.730 ,4,0,0.,1.2,0.,1.2,0.,1.2,0.,1.2
1986-01-26 12:04:38.930 ,4,0,0.,1.2,0.,1.2,0.,1.2,0.,1.2
1986-01-26 12:04:40.130 ,4,0,0.,1.2,0.,1.2,0.,1.2,1.,1.2
1986-01-26 12:04:41.330 ,4,0,0.,1.2,0.,1.2,0.,1.2,0.,1.2
1986-01-26 12:04:42.530 ,4,0,0.,1.2,0.,1.2,0.,1.2,0.,1.2
1986-01-26 12:04:43.730 ,4,0,0.,1.2,0.,1.2,0.,1.2,0.,1.2
1986-01-26 12:04:44.930 ,4,0,0.,1.2,0.,1.2,0.,1.2,0.,1.2
1986-01-26 12:04:46.130 ,4,0,0.,1.2,0.,1.2,0.,1.2,0.,1.2
1986-01-26 12:04:47.330 ,4,0,0.,1.2,0.,1.2,0.,1.2,0.,1.2
1986-01-26 12:04:48.530 ,5,0,0.,1.2,0.,1.2,0.,1.2,0.,1.2
1986-01-26 12:04:49.730 ,5,0,0.,1.2,0.,1.2,0.,1.2,0.,1.2
1986-01-26 12:04:50.930 ,5,0,0.,1.2,0.,1.2,0.,1.2,1.,1.2
1986-01-26 12:04:52.130 ,5,0,0.,1.2,0.,1.2,0.,1.2,0.,1.2
1986-01-26 12:04:53.330 ,5,0,0.,1.2,0.,1.2,0.,1.2,0.,1.2
1986-01-26 12:04:54.530 ,5,0,0.,1.2,0.,1.2,0.,1.2,0.,1.2
1986-01-26 12:04:55.730 ,5,0,0.,1.2,0.,1.2,0.,1.2,0.,1.2
1986-01-26 12:04:56.930 ,5,0,0.,1.2,0.,1.2,0.,1.2,0.,1.2
1986-01-26 12:04:58.130 ,5,0,0.,1.2,0.,1.2,0.,1.2,0.,1.2
1986-01-26 12:04:59.330 ,5,0,0.,1.2,0.,1.2,0.,1.2,0.,1.2
1986-01-26 12:05:00.530 ,5,0,0.,1.2,0.,1.2,0.,1.2,0.,1.2
1986-01-26 12:05:01.730 ,5,0,0.,1.2,0.,1.2,0.,1.2,0.,1.2
1986-01-26 12:05:02.930 ,5,0,0.,1.2,0.,1.2,0.,1.2,0.,1.2
1986-01-26 12:05:04.130 ,5,0,0.,1.2,0.,1.2,0.,1.2,0.,1.2
1986-01-26 12:05:05.330 ,5,0,0.,1.2,0.,1.2,0.,1.2,1.,1.2
1986-01-26 12:05:06.530 ,5,0,0.,1.2,0.,1.2,0.,1.2,0.,1.2
1986-01-26 12:05:07.730 ,5,0,0.,1.2,0.,1.2,0.,1.2,0.,1.2
1986-01-26 12:05:08.930 ,5,0,0.,1.2,0.,1.2,0.,1.2,0.,1.2
1986-01-26 12:05:10.130 ,5,0,0.,1.2,0.,1.2,0.,1.2,0.,1.2
1986-01-26 12:05:11.330 ,5,0,0.,1.2,0.,1.2,0.,1.2,0.,1.2
1986-01-26 12:05:12.530 ,5,0,0.,1.2,0.,1.2,0.,1.2,0.,1.2
1986-01-26 12:05:13.730 ,5,0,0.,1.2,0.,1.2,0.,1.2,0.,1.2
1986-01-26 12:05:14.930 ,5,0,0.,1.2,0.,1.2,0.,1.2,0.,1.2
1986-01-26 12:05:16.130 ,5,0,0.,1.2,0.,1.2,0.,1.2,0.,1.2
1986-01-26 12:05:17.330 ,5,0,0.,1.2,0.,1.2,0.,1.2,0.,1.2
1986-01-26 12:05:18.530 ,5,0,0.,1.2,0.,1.2,0.,1.2,0.,1.2
1986-01-26 12:05:19.730 ,5,0,0.,1.2,0.,1.2,0.,1.2,0.,1.2
1986-01-26 12:05:20.930 ,5,0,0.,1.2,0.,1.2,0.,1.2,0.,1.2
1986-01-26 12:05:22.130 ,5,0,0.,1.2,0.,1.2,0.,1.2,0.,1.2
1986-01-26 12:05:23.330 ,5,0,0.,1.2,0.,1.2,0.,1.2,0.,1.2
1986-01-26 12:05:24.530 ,5,0,0.,1.2,0.,1.2,0.,1.2,0.,1.2
1986-01-26 12:05:25.730 ,5,0,0.,1.2,0.,1.2,0.,1.2,0.,1.2
1986-01-26 12:05:26.930 ,5,0,0.,1.2,0.,1.2,0.,1.2,0.,1.2
1986-01-26 12:05:28.130 ,5,0,0.,1.2,0.,1.2,0.,1.2,0.,1.2
1986-01-26 12:05:29.330 ,5,0,0.,1.2,0.,1.2,0.,1.2,0.,1.2
1986-01-26 12:05:30.530 ,5,0,0.,1.2,0.,1.2,0.,1.2,0.,1.2
1986-01-26 12:05:31.730 ,5,0,0.,1.2,0.,1.2,0.,1.2,0.,1.2
1986-01-26 12:05:32.930 ,5,0,0.,1.2,0.,1.2,0.,1.2,0.,1.2
1986-01-26 12:05:34.130 ,5,0,0.,1.2,0.,1.2,0.,1.2,0.,1.2
1986-01-26 12:05:35.330 ,5,0,0.,1.2,0.,1.2,0.,1.2,0.,1.2
1986-01-26 12:05:36.530 ,6,0,0.,1.2,0.,1.2,0.,1.2,0.,1.2
1986-01-26 12:05:37.730 ,6,0,0.,1.2,0.,1.2,0.,1.2,0.,1.2
1986-01-26 12:05:38.930 ,6,0,0.,1.2,0.,1.2,0.,1.2,0.,1.2
1986-01-26 12:05:40.130 ,6,0,0.,1.2,0.,1.2,0.,1.2,0.,1.2
1986-01-26 12:05:41.330 ,6,0,0.,1.2,0.,1.2,0.,1.2,0.,1.2
1986-01-26 12:05:42.530 ,6,0,0.,1.2,0.,1.2,0.,1.2,0.,1.2
1986-01-26 12:05:43.730 ,6,0,0.,1.2,0.,1.2,0.,1.2,0.,1.2
1986-01-26 12:05:44.930 ,6,0,0.,1.2,0.,1.2,0.,1.2,0.,1.2
1986-01-26 12:05:46.130 ,6,0,0.,1.2,0.,1.2,0.,1.2,0.,1.2
1986-01-26 12:05:47.330 ,6,0,0.,1.2,0.,1.2,0.,1.2,0.,1.2
1986-01-26 12:05:48.530 ,6,0,0.,1.2,0.,1.2,0.,1.2,1.,1.2
1986-01-26 12:05:49.730 ,6,0,0.,1.2,0.,1.2,0.,1.2,1.,1.2
1986-01-26 12:05:50.930 ,6,0,0.,1.2,0.,1.2,0.,1.2,0.,1.2
1986-01-26 12:05:52.130 ,6,0,0.,1.2,0.,1.2,0.,1.2,1.,1.2
1986-01-26 12:05:53.330 ,6,0,0.,1.2,0.,1.2,0.,1.2,0.,1.2
1986-01-26 12:05:54.530 ,6,0,0.,1.2,0.,1.2,0.,1.2,0.,1.2
1986-01-26 12:05:55.730 ,6,0,0.,1.2,0.,1.2,0.,1.2,0.,1.2
1986-01-26 12:05:56.930 ,6,0,0.,1.2,0.,1.2,0.,1.2,0.,1.2
1986-01-26 12:05:58.130 ,6,0,0.,1.2,0.,1.2,0.,1.2,0.,1.2
1986-01-26 12:05:59.330 ,6,0,0.,1.2,0.,1.2,0.,1.2,0.,1.2
1986-01-26 12:06:00.530 ,6,0,0.,1.2,0.,1.2,0.,1.2,0.,1.2
1986-01-26 12:06:01.730 ,6,0,0.,1.2,0.,1.2,0.,1.2,0.,1.2
1986-01-26 12:06:02.930 ,6,0,0.,1.2,0.,1.2,0.,1.2,0.,1.2
1986-01-26 12:06:04.130 ,6,0,0.,1.2,0.,1.2,0.,1.2,0.,1.2
1986-01-26 12:06:05.330 ,6,0,0.,1.2,0.,1.2,0.,1.2,1.,1.2
1986-01-26 12:06:06.530 ,6,0,0.,1.2,0.,1.2,0.,1.2,0.,1.2
1986-01-26 12:06:07.730 ,6,0,0.,1.2,0.,1.2,0.,1.2,0.,1.2
1986-01-26 12:06:08.930 ,6,0,0.,1.2,0.,1.2,0.,1.2,0.,1.2
1986-01-26 12:06:10.130 ,6,0,0.,1.2,0.,1.2,0.,1.2,0.,1.2
1986-01-26 12:06:11.330 ,6,0,0.,1.2,0.,1.2,0.,1.2,0.,1.2
1986-01-26 12:06:12.530 ,6,0,0.,1.2,0.,1.2,0.,1.2,0.,1.2
1986-01-26 12:06:13.730 ,6,0,0.,1.2,0.,1.2,0.,1.2,0.,1.2
1986-01-26 12:06:14.930 ,6,0,0.,1.2,0.,1.2,0.,1.2,0.,1.2
1986-01-26 12:06:16.130 ,6,0,0.,1.2,0.,1.2,0.,1.2,0.,1.2
1986-01-26 12:06:17.330 ,6,0,0.,1.2,0.,1.2,0.,1.2,0.,1.2
1986-01-26 12:06:18.530 ,6,0,0.,1.2,0.,1.2,0.,1.2,0.,1.2
1986-01-26 12:06:19.730 ,6,0,0.,1.2,0.,1.2,0.,1.2,0.,1.2
1986-01-26 12:06:20.930 ,6,0,0.,1.2,0.,1.2,0.,1.2,0.,1.2
1986-01-26 12:06:22.130 ,6,0,0.,1.2,0.,1.2,0.,1.2,0.,1.2
1986-01-26 12:06:23.330 ,6,0,0.,1.2,0.,1.2,0.,1.2,0.,1.2
1986-01-26 12:06:24.530 ,7,0,0.,1.2,0.,1.2,0.,1.2,0.,1.2
1986-01-26 12:06:25.730 ,7,0,0.,1.2,0.,1.2,0.,1.2,0.,1.2
1986-01-26 12:06:26.930 ,7,0,0.,1.2,0.,1.2,0.,1.2,0.,1.2
1986-01-26 12:06:28.130 ,7,0,0.,1.2,0.,1.2,0.,1.2,0.,1.2
1986-01-26 12:06:29.330 ,7,0,0.,1.2,0.,1.2,0.,1.2,0.,1.2
1986-01-26 12:06:30.530 ,7,0,0.,1.2,0.,1.2,2.,1.2,0.,1.2
1986-01-26 12:06:31.730 ,7,0,0.,1.2,0.,1.2,4.,1.2,0.,1.2
1986-01-26 12:06:32.930 ,7,0,0.,1.2,0.,1.2,8.,1.2,1.,1.2
1986-01-26 12:06:34.130 ,7,0,0.,1.2,0.,1.2,5.,1.2,0.,1.2
1986-01-26 12:06:35.330 ,7,0,0.,1.2,0.,1.2,8.,1.2,0.,1.2
1986-01-26 12:06:36.530 ,7,0,0.,1.2,0.,1.2,6.,1.2,0.,1.2
1986-01-26 12:06:37.730 ,7,0,0.,1.2,0.,1.2,4.,1.2,0.,1.2
1986-01-26 12:06:38.930 ,7,0,0.,1.2,0.,1.2,4.,1.2,0.,1.2
1986-01-26 12:06:40.130 ,7,0,0.,1.2,0.,1.2,5.,1.2,0.,1.2
1986-01-26 12:06:41.330 ,7,0,0.,1.2,0.,1.2,5.,1.2,0.,1.2
1986-01-26 12:06:42.530 ,7,0,0.,1.2,0.,1.2,6.,1.2,0.,1.2
1986-01-26 12:06:43.730 ,7,0,0.,1.2,0.,1.2,7.,1.2,0.,1.2
1986-01-26 12:06:44.930 ,7,0,0.,1.2,0.,1.2,4.,1.2,0.,1.2
1986-01-26 12:06:46.130 ,7,0,0.,1.2,0.,1.2,7.,1.2,0.,1.2
1986-01-26 12:06:47.330 ,7,0,0.,1.2,0.,1.2,3.,1.2,0.,1.2
1986-01-26 12:06:48.530 ,7,0,0.,1.2,0.,1.2,3.,1.2,0.,1.2
1986-01-26 12:06:49.730 ,7,0,0.,1.2,0.,1.2,2.,1.2,1.,1.2
1986-01-26 12:06:50.930 ,7,0,0.,1.2,0.,1.2,2.,1.2,0.,1.2
1986-01-26 12:06:52.130 ,7,0,0.,1.2,0.,1.2,5.,1.2,0.,1.2
1986-01-26 12:06:53.330 ,7,0,0.,1.2,0.,1.2,3.,1.2,0.,1.2
1986-01-26 12:06:54.530 ,7,0,0.,1.2,0.,1.2,11.,1.2,0.,1.2
1986-01-26 12:06:55.730 ,7,0,0.,1.2,0.,1.2,6.,1.2,0.,1.2
1986-01-26 12:06:56.930 ,7,0,0.,1.2,0.,1.2,1.,1.2,0.,1.2
1986-01-26 12:06:58.130 ,7,0,0.,1.2,0.,1.2,8.,1.2,0.,1.2
1986-01-26 12:06:59.330 ,7,0,0.,1.2,0.,1.2,5.,1.2,0.,1.2
1986-01-26 12:07:00.530 ,7,0,0.,1.2,0.,1.2,4.,1.2,0.,1.2
1986-01-26 12:07:01.730 ,7,0,0.,1.2,0.,1.2,4.,1.2,0.,1.2
1986-01-26 12:07:02.930 ,7,0,0.,1.2,0.,1.2,8.,1.2,0.,1.2
1986-01-26 12:07:04.130 ,7,0,0.,1.2,0.,1.2,3.,1.2,0.,1.2
1986-01-26 12:07:05.330 ,7,0,0.,1.2,0.,1.2,3.,1.2,0.,1.2
1986-01-26 12:07:06.530 ,7,0,0.,1.2,0.,1.2,6.,1.2,0.,1.2
1986-01-26 12:07:07.730 ,7,0,0.,1.2,0.,1.2,9.,1.2,0.,1.2
1986-01-26 12:07:08.930 ,7,0,0.,1.2,0.,1.2,7.,1.2,0.,1.2
1986-01-26 12:07:10.130 ,7,0,0.,1.2,0.,1.2,8.,1.2,0.,1.2
1986-01-26 12:07:11.330 ,7,0,0.,1.2,0.,1.2,4.,1.2,0.,1.2
1986-01-26 12:07:12.530 ,7,0,0.,1.2,0.,1.2,5.,1.2,0.,1.2
1986-01-26 12:07:13.730 ,7,0,0.,1.2,0.,1.2,6.,1.2,0.,1.2
1986-01-26 12:07:14.930 ,7,0,0.,1.2,0.,1.2,6.,1.2,0.,1.2
1986-01-26 12:07:16.130 ,7,0,0.,1.2,0.,1.2,6.,1.2,0.,1.2
1986-01-26 12:07:17.330 ,7,0,0.,1.2,0.,1.2,4.,1.2,0.,1.2
1986-01-26 12:07:18.530 ,7,0,0.,1.2,0.,1.2,5.,1.2,0.,1.2
1986-01-26 12:07:19.730 ,7,0,0.,1.2,0.,1.2,4.,1.2,0.,1.2
1986-01-26 12:07:20.930 ,7,0,0.,1.2,0.,1.2,5.,1.2,0.,1.2
1986-01-26 12:07:22.130 ,7,0,0.,1.2,0.,1.2,3.,1.2,0.,1.2
1986-01-26 12:07:23.330 ,7,0,0.,1.2,0.,1.2,5.,1.2,0.,1.2
1986-01-26 12:07:24.530 ,7,0,0.,1.2,0.,1.2,5.,1.2,0.,1.2
1986-01-26 12:07:25.730 ,7,0,0.,1.2,0.,1.2,8.,1.2,0.,1.2
1986-01-26 12:07:26.930 ,7,0,0.,1.2,0.,1.2,4.,1.2,0.,1.2
1986-01-26 12:07:28.130 ,7,0,0.,1.2,0.,1.2,7.,1.2,0.,1.2
1986-01-26 12:07:29.330 ,7,0,0.,1.2,0.,1.2,10.,1.2,0.,1.2
1986-01-26 12:07:30.530 ,7,0,0.,1.2,0.,1.2,9.,1.2,0.,1.2
1986-01-26 12:07:31.730 ,7,0,0.,1.2,0.,1.2,5.,1.2,0.,1.2
1986-01-26 12:07:32.930 ,7,0,0.,1.2,0.,1.2,7.,1.2,0.,1.2
1986-01-26 12:07:34.130 ,7,0,0.,1.2,0.,1.2,5.,1.2,0.,1.2
1986-01-26 12:07:35.330 ,7,0,0.,1.2,0.,1.2,4.,1.2,0.,1.2
1986-01-26 12:07:36.530 ,7,0,0.,1.2,0.,1.2,5.,1.2,0.,1.2
1986-01-26 12:07:37.730 ,7,0,0.,1.2,0.,1.2,4.,1.2,0.,1.2
1986-01-26 12:07:38.930 ,7,0,0.,1.2,0.,1.2,8.,1.2,0.,1.2
1986-01-26 12:07:40.130 ,7,0,0.,1.2,0.,1.2,7.,1.2,0.,1.2
1986-01-26 12:07:41.330 ,7,0,0.,1.2,0.,1.2,3.,1.2,0.,1.2
1986-01-26 12:07:42.530 ,7,0,0.,1.2,0.,1.2,5.,1.2,0.,1.2
1986-01-26 12:07:43.730 ,7,0,0.,1.2,0.,1.2,3.,1.2,0.,1.2
1986-01-26 12:07:44.930 ,7,0,0.,1.2,0.,1.2,4.,1.2,0.,1.2
1986-01-26 12:07:46.130 ,7,0,0.,1.2,0.,1.2,8.,1.2,0.,1.2
1986-01-26 12:07:47.330 ,7,0,0.,1.2,0.,1.2,4.,1.2,0.,1.2
1986-01-26 12:07:48.530 ,7,0,0.,1.2,0.,1.2,7.,1.2,0.,1.2
1986-01-26 12:07:49.730 ,7,0,0.,1.2,0.,1.2,6.,1.2,0.,1.2
1986-01-26 12:07:50.930 ,7,0,0.,1.2,0.,1.2,8.,1.2,0.,1.2
1986-01-26 12:07:52.130 ,7,0,0.,1.2,0.,1.2,8.,1.2,0.,1.2
1986-01-26 12:07:53.330 ,7,0,0.,1.2,0.,1.2,3.,1.2,0.,1.2
1986-01-26 12:07:54.530 ,7,0,0.,1.2,0.,1.2,11.,1.2,0.,1.2
1986-01-26 12:07:55.730 ,7,0,0.,1.2,0.,1.2,7.,1.2,0.,1.2
1986-01-26 12:07:56.930 ,7,0,0.,1.2,0.,1.2,5.,1.2,0.,1.2
1986-01-26 12:07:58.130 ,7,0,0.,1.2,0.,1.2,9.,1.2,1.,1.2
1986-01-26 12:07:59.330 ,7,0,0.,1.2,0.,1.2,6.,1.2,0.,1.2
1986-01-26 12:08:00.530 ,6,0,0.,1.2,0.,1.2,6.,1.2,0.,1.2
1986-01-26 12:08:01.730 ,6,0,0.,1.2,0.,1.2,5.,1.2,0.,1.2
1986-01-26 12:08:02.930 ,6,0,0.,1.2,0.,1.2,6.,1.2,0.,1.2
1986-01-26 12:08:04.130 ,6,0,0.,1.2,0.,1.2,2.,1.2,0.,1.2
1986-01-26 12:08:05.330 ,6,0,0.,1.2,0.,1.2,5.,1.2,0.,1.2
1986-01-26 12:08:06.530 ,6,0,0.,1.2,0.,1.2,7.,1.2,0.,1.2
1986-01-26 12:08:07.730 ,6,0,0.,1.2,0.,1.2,0.,1.2,0.,1.2
1986-01-26 12:08:08.930 ,6,0,0.,1.2,0.,1.2,0.,1.2,0.,1.2
1986-01-26 12:08:10.130 ,6,0,0.,1.2,0.,1.2,0.,1.2,0.,1.2
1986-01-26 12:08:11.330 ,6,0,0.,1.2,0.,1.2,0.,1.2,0.,1.2
1986-01-26 12:08:12.530 ,6,0,0.,1.2,0.,1.2,0.,1.2,0.,1.2
1986-01-26 12:08:13.730 ,6,0,0.,1.2,0.,1.2,0.,1.2,0.,1.2
1986-01-26 12:08:14.930 ,6,0,0.,1.2,0.,1.2,0.,1.2,0.,1.2
1986-01-26 12:08:16.130 ,6,0,0.,1.2,0.,1.2,0.,1.2,0.,1.2
1986-01-26 12:08:17.330 ,6,0,0.,1.2,0.,1.2,0.,1.2,0.,1.2
1986-01-26 12:08:18.530 ,6,0,0.,1.2,0.,1.2,0.,1.2,1.,1.2
1986-01-26 12:08:19.730 ,6,0,0.,1.2,0.,1.2,0.,1.2,0.,1.2
1986-01-26 12:08:20.930 ,6,0,0.,1.2,0.,1.2,0.,1.2,0.,1.2
1986-01-26 12:08:22.130 ,6,0,0.,1.2,0.,1.2,0.,1.2,0.,1.2
1986-01-26 12:08:23.330 ,6,0,0.,1.2,0.,1.2,0.,1.2,0.,1.2
1986-01-26 12:08:24.530 ,6,0,0.,1.2,0.,1.2,0.,1.2,0.,1.2
1986-01-26 12:08:25.730 ,6,0,0.,1.2,0.,1.2,0.,1.2,0.,1.2
1986-01-26 12:08:26.930 ,6,0,0.,1.2,0.,1.2,0.,1.2,0.,1.2
1986-01-26 12:08:28.130 ,6,0,0.,1.2,0.,1.2,0.,1.2,0.,1.2
1986-01-26 12:08:29.330 ,6,0,0.,1.2,0.,1.2,0.,1.2,1.,1.2
1986-01-26 12:08:30.530 ,6,0,0.,1.2,0.,1.2,0.,1.2,0.,1.2
1986-01-26 12:08:31.730 ,6,0,0.,1.2,0.,1.2,0.,1.2,0.,1.2
1986-01-26 12:08:32.930 ,6,0,0.,1.2,0.,1.2,0.,1.2,0.,1.2
1986-01-26 12:08:34.130 ,6,0,0.,1.2,0.,1.2,0.,1.2,0.,1.2
1986-01-26 12:08:35.330 ,6,0,0.,1.2,0.,1.2,0.,1.2,0.,1.2
1986-01-26 12:08:36.530 ,6,0,0.,1.2,0.,1.2,0.,1.2,0.,1.2
1986-01-26 12:08:37.730 ,6,0,0.,1.2,0.,1.2,0.,1.2,0.,1.2